Syria, VA (22743)

10:04 PM EST on February 10, 2016 (GMT -0500)
IDA | | Change Station
CLOSE
Current Station
Personal Weather Station
Location: Luray, VA
Elevation: 1302 ft
Nearby Weather Stations
Active Advisory: Wind Chill Advisory

Elev 1302 ft 38.59 °N, 78.43 °W | Updated 12 minutes ago

Mostly Cloudy
Mostly Cloudy
20.0 °F
Feels Like 15 °F
N
3.7
Wind Variable Wind from South

Today
High -- | Low -- °F
--% Chance of Precip.
Yesterday
High -- | Low -- °F
Precip. -- in
Pressure 29.93 in
Visibility 10.0 miles
Clouds Scattered Clouds 4900 ft
Windchill 15 °F
Dew Point 8 °F
Humidity 58%
Rainfall 0.00 in
Snow Depth Not available.
7:10 AM 5:45 PM
Waxing Crescent, 9% visible
METAR KLUA 110255Z AUTO 00000KT 10SM SCT049 M06/M15 A2993 RMK AO2
Pressure 29.93 in
Visibility 10.0 miles
Clouds Scattered Clouds 4900 ft
Windchill 15 °F
Dew Point 8 °F
Humidity 58%
Rainfall 0.00 in
Snow Depth Not available.
7:10 AM 5:45 PM
Waxing Crescent, 9% visible
METAR KLUA 110255Z AUTO 00000KT 10SM SCT049 M06/M15 A2993 RMK AO2

10-Day Weather Forecast

Almanac

Astronomy

Feb. 10, 2016 Rise Set
Actual Time
Civil Twilight
Nautical Twilight
Astronomical Twilight
Moon
Length of Visible Light
Length of Day
Tomorrow will be .
, % of the Moon is Illuminated

Today's Extremes

State Highs State Lows

Community

WunderPhotos

Upload Photos

1,891,994 photos uploaded!

WunderBlog® & News

Nearby

Air Quality

  Air Quality AQ Index Pollutant
Not available.

Snow Depth

Station Depth Elevation

Earthquake Activity

City Distance Mag. Time & Date
Minimum magnitude displayed is 2.5.

Coastal Water Temperatures

Place Temperature

Stations

Nearby Weather Stations

Station Location Temp. Windchill Dew Point Humidity Wind Precip. Elev Updated Type
                   

Watches & Warnings

Wind Chill Advisory
Issued: 6:30 PM EST Feb. 10, 2016 – National Weather Service

... Wind Chill Advisory remains in effect from midnight tonight to
10 am EST Thursday...

* hazard types... wind chills.

* Wind chill... between 10 and 20 below zero tonight.

* Timing... wind chills will drop below 10 below zero tonight and
are expected to rise into the single digits below zero during
the day Thursday.

* Impacts... wind chills less than 10 below zero will be
dangerous if proper precautions are not taken.

* Winds... west 15 to 20 mph with gusts up to 30 mph.

* Temperatures... single digits to mid teens.

Precautionary/preparedness actions...

A Wind Chill Advisory means that very cold air and strong winds
will combine to generate low wind chills. This will result in
frost bite and lead to hypothermia if precautions are not taken.
If you must venture outdoors... make sure you wear a hat and
gloves.